{"data":{"norad_id":53709,"epoch":"2026-09-20T21:01:50.899584Z","epoch_age_seconds":48727,"freshness":"FRESH","line1":"1 53709U 22107K   26263.87628356  .00000441  00000+0  23544-4 0  9990","line2":"2 53709  53.1600  82.1962 0001269  90.0332 270.0816 15.35394337224087","mean_motion":15.35394337,"eccentricity":0.0001269,"inclination_deg":53.16,"raan_deg":82.1962,"arg_perigee_deg":90.0332,"mean_anomaly_deg":270.0816,"bstar":2.3544e-5,"rev_number":22408,"period_min":93.786981318012,"perigee_km":458.88172836425,"apogee_km":460.61718394682,"semimajor_km":6837.8864561555,"source":"CELESTRAK","updated_at":"2026-09-21T09:00:32.983577Z"}}